This is the latest recevied weather packets stored in our database for station/object SP1BMW-13. If no packets are shown the sender has not sent any weather packets the latest 10 day(s).
| Time | Temp. | Humidity | Pressure | Rain* | Wind** | Luminosity | Snow |
|---|---|---|---|---|---|---|---|
| 1778256661 | 13.89° C | 50% | 1019.1 hPa | 0 mm | 0.89 m/s, 326° | 121 W/m² | - |
| 1778256601 | 13.89° C | 50% | 1019.2 hPa | 0 mm | 1.34 m/s, 307° | 122 W/m² | - |
| 1778256541 | 13.89° C | 52% | 1019 hPa | 0 mm | 0.45 m/s, 1° | 120 W/m² | - |
| 1778256481 | 13.89° C | 52% | 1019 hPa | 0 mm | 0.89 m/s, 306° | 118 W/m² | - |
| 1778256421 | 13.89° C | 53% | 1018.9 hPa | 0 mm | 0.45 m/s, 313° | 115 W/m² | - |
| 1778256361 | 13.89° C | 52% | 1019.2 hPa | 0 mm | 0.45 m/s, 322° | 113 W/m² | - |
| 1778256301 | 13.89° C | 52% | 1019.2 hPa | 0 mm | 0.45 m/s, 343° | 111 W/m² | - |
| 1778256240 | 13.89° C | 51% | 1019.1 hPa | 0 mm | 0.45 m/s, 10° | 110 W/m² | - |
| 1778256180 | 13.89° C | 51% | 1019 hPa | 0 mm | 0.45 m/s, 304° | 110 W/m² | - |
| 1778256120 | 13.89° C | 51% | 1019.2 hPa | 0 mm | 0.89 m/s, 357° | 111 W/m² | - |
| 1778256060 | 13.89° C | 52% | 1019.1 hPa | 0 mm | 0.45 m/s, 305° | 113 W/m² | - |
| 1778256001 | 13.89° C | 52% | 1019.2 hPa | 0 mm | 0.89 m/s, 353° | 114 W/m² | - |
| 1778255940 | 13.89° C | 52% | 1019 hPa | 0 mm | 1.34 m/s, 346° | 114 W/m² | - |
| 1778255880 | 13.89° C | 53% | 1019.3 hPa | 0 mm | 0.45 m/s, 313° | 114 W/m² | - |
| 1778255820 | 13.89° C | 53% | 1019.1 hPa | 0 mm | 0.45 m/s, 334° | 114 W/m² | - |
| 1778255760 | 13.89° C | 52% | 1019.2 hPa | 0 mm | 0.45 m/s, 12° | 115 W/m² | - |
| 1778255701 | 13.89° C | 52% | 1019 hPa | 0 mm | 0.45 m/s, 2° | 116 W/m² | - |
| 1778255641 | 13.89° C | 52% | 1019.1 hPa | 0 mm | 0.45 m/s, 316° | 115 W/m² | - |
| 1778255580 | 13.89° C | 52% | 1019.1 hPa | 0 mm | 0.89 m/s, 64° | 111 W/m² | - |
| 1778255520 | 13.89° C | 53% | 1019.2 hPa | 0 mm | 0.45 m/s, 30° | 107 W/m² | - |
| 1778255461 | 13.89° C | 51% | 1019 hPa | 0 mm | 0.45 m/s, 283° | 104 W/m² | - |
| 1778255400 | 13.89° C | 50% | 1019 hPa | 0 mm | 0 m/s | 102 W/m² | - |
| 1778255341 | 13.89° C | 53% | 1019.1 hPa | 0 mm | 0 m/s | 101 W/m² | - |
| 1778255280 | 13.89° C | 52% | 1019.1 hPa | 0 mm | 0 m/s | 100 W/m² | - |
| 1778255220 | 13.89° C | 52% | 1019.2 hPa | 0 mm | 0 m/s | 99 W/m² | - |
* Rain latest hour (hover to see other rain measurements)
** Current wind speed in m/s (hover to see current wind gust speed)